Year,Month,Day,Hour,Minute,Value (Times are PST for temperature in C)
2020,07,05,00,00,10.80
2020,07,05,00,01,10.70
2020,07,05,00,02,10.70
2020,07,05,00,03,10.70
2020,07,05,00,04,10.70
2020,07,05,00,05,10.70
2020,07,05,00,06,10.70
2020,07,05,00,07,10.70
2020,07,05,00,08,10.70
2020,07,05,00,09,10.70
2020,07,05,00,10,10.70
2020,07,05,00,11,10.70
2020,07,05,00,12,10.60
2020,07,05,00,13,10.60
2020,07,05,00,14,10.60
2020,07,05,00,15,10.60
2020,07,05,00,16,10.60
2020,07,05,00,17,10.60
2020,07,05,00,18,10.60
2020,07,05,00,19,10.60
2020,07,05,00,20,10.60
2020,07,05,00,21,10.60
2020,07,05,00,22,10.60
2020,07,05,00,23,10.60
2020,07,05,00,24,10.50
2020,07,05,00,25,10.50
2020,07,05,00,26,10.50
2020,07,05,00,27,10.50
2020,07,05,00,28,10.40
2020,07,05,00,29,10.40
2020,07,05,00,30,10.40
2020,07,05,00,31,10.40
2020,07,05,00,32,10.30
2020,07,05,00,33,10.30
2020,07,05,00,34,10.40
2020,07,05,00,35,10.30
2020,07,05,00,36,10.30
2020,07,05,00,37,10.30
2020,07,05,00,38,10.30
2020,07,05,00,39,10.30
2020,07,05,00,40,10.30
2020,07,05,00,41,10.30
2020,07,05,00,42,10.30
2020,07,05,00,43,10.30
2020,07,05,00,44,10.30
2020,07,05,00,45,10.30
2020,07,05,00,46,10.30
2020,07,05,00,47,10.30
2020,07,05,00,48,10.20
2020,07,05,00,49,10.20
2020,07,05,00,50,10.20
2020,07,05,00,51,10.20
2020,07,05,00,52,10.20
2020,07,05,00,53,10.20
2020,07,05,00,54,10.20
2020,07,05,00,55,10.10
2020,07,05,00,56,10.10
2020,07,05,00,57,10.10
2020,07,05,00,58,10.10
2020,07,05,00,59,10.10
2020,07,05,01,00,10.10
2020,07,05,01,01,10.10
2020,07,05,01,02,10.10
2020,07,05,01,03,10.10
2020,07,05,01,04,10.10
2020,07,05,01,05,10.10
2020,07,05,01,06,10.00
2020,07,05,01,07,10.00
2020,07,05,01,08,10.00
2020,07,05,01,09,10.00
2020,07,05,01,10,10.00
2020,07,05,01,11,9.90
2020,07,05,01,12,9.90
2020,07,05,01,13,9.90
2020,07,05,01,14,9.90
2020,07,05,01,15,9.90
2020,07,05,01,16,9.90
2020,07,05,01,17,9.90
2020,07,05,01,18,9.90
2020,07,05,01,19,9.90
2020,07,05,01,20,9.90
2020,07,05,01,21,9.80
2020,07,05,01,22,9.80
2020,07,05,01,23,9.80
2020,07,05,01,24,9.80
2020,07,05,01,25,9.80
2020,07,05,01,26,9.80
2020,07,05,01,27,9.80
2020,07,05,01,28,9.80
2020,07,05,01,29,9.80
2020,07,05,01,30,9.80
2020,07,05,01,31,9.70
2020,07,05,01,32,9.70
2020,07,05,01,33,9.70
2020,07,05,01,34,9.70
2020,07,05,01,35,9.70
2020,07,05,01,36,9.70
2020,07,05,01,37,9.70
2020,07,05,01,38,9.70
2020,07,05,01,39,9.60
2020,07,05,01,40,9.60
2020,07,05,01,41,9.60
2020,07,05,01,42,9.60
2020,07,05,01,43,9.60
2020,07,05,01,44,9.60
2020,07,05,01,45,9.60
2020,07,05,01,46,9.60
2020,07,05,01,47,9.60
2020,07,05,01,48,9.60
2020,07,05,01,49,9.60
2020,07,05,01,50,9.50
2020,07,05,01,51,9.50
2020,07,05,01,52,9.50
2020,07,05,01,53,9.50
2020,07,05,01,54,9.40
2020,07,05,01,55,9.40
2020,07,05,01,56,9.40
2020,07,05,01,57,9.40
2020,07,05,01,58,9.40
2020,07,05,01,59,9.40
2020,07,05,02,00,9.40
2020,07,05,02,01,9.40
2020,07,05,02,02,9.40
2020,07,05,02,03,9.40
2020,07,05,02,04,9.40
2020,07,05,02,05,9.40
2020,07,05,02,06,9.40
2020,07,05,02,07,9.40
2020,07,05,02,08,9.40
2020,07,05,02,09,9.40
2020,07,05,02,10,9.40
2020,07,05,02,11,9.30
2020,07,05,02,12,9.30
2020,07,05,02,13,9.30
2020,07,05,02,14,9.30
2020,07,05,02,15,9.30
2020,07,05,02,16,9.30
2020,07,05,02,17,9.20
2020,07,05,02,18,9.20
2020,07,05,02,19,9.20
2020,07,05,02,20,9.20
2020,07,05,02,21,9.20
2020,07,05,02,22,9.20
2020,07,05,02,23,9.10
2020,07,05,02,24,9.10
2020,07,05,02,25,9.10
2020,07,05,02,26,9.10
2020,07,05,02,27,9.20
2020,07,05,02,28,9.20
2020,07,05,02,29,9.20
2020,07,05,02,30,9.20
2020,07,05,02,31,9.20
2020,07,05,02,32,9.20
2020,07,05,02,33,9.20
2020,07,05,02,34,9.20
2020,07,05,02,35,9.20
2020,07,05,02,36,9.20
2020,07,05,02,37,9.20
2020,07,05,02,38,9.20
2020,07,05,02,39,9.20
2020,07,05,02,40,9.20
2020,07,05,02,41,9.20
2020,07,05,02,42,9.20
2020,07,05,02,43,9.20
2020,07,05,02,44,9.20
2020,07,05,02,45,9.10
2020,07,05,02,46,9.20
2020,07,05,02,47,9.20
2020,07,05,02,48,9.20
2020,07,05,02,49,9.20
2020,07,05,02,50,9.20
2020,07,05,02,51,9.20
2020,07,05,02,52,9.10
2020,07,05,02,53,9.10
2020,07,05,02,54,9.10
2020,07,05,02,55,9.10
2020,07,05,02,56,9.10
2020,07,05,02,57,9.10
2020,07,05,02,58,9.10
2020,07,05,02,59,9.10
2020,07,05,03,00,9.10
2020,07,05,03,01,9.10
2020,07,05,03,02,9.10
2020,07,05,03,03,9.00
2020,07,05,03,04,9.00
2020,07,05,03,05,9.00
2020,07,05,03,06,9.00
2020,07,05,03,07,9.00
2020,07,05,03,08,8.90
2020,07,05,03,09,8.90
2020,07,05,03,10,8.90
2020,07,05,03,11,8.90
2020,07,05,03,12,8.90
2020,07,05,03,13,8.90
2020,07,05,03,14,8.90
2020,07,05,03,15,8.90
2020,07,05,03,16,8.90
2020,07,05,03,17,8.90
2020,07,05,03,18,8.90
2020,07,05,03,19,8.90
2020,07,05,03,20,8.90
2020,07,05,03,21,8.90
2020,07,05,03,22,8.80
2020,07,05,03,23,8.90
2020,07,05,03,24,8.90
2020,07,05,03,25,8.90
2020,07,05,03,26,8.90
2020,07,05,03,27,8.80
2020,07,05,03,28,8.80
2020,07,05,03,29,8.80
2020,07,05,03,30,8.80
2020,07,05,03,31,8.80
2020,07,05,03,32,8.80
2020,07,05,03,33,8.80
2020,07,05,03,34,8.80
2020,07,05,03,35,8.80
2020,07,05,03,36,8.80
2020,07,05,03,37,8.80
2020,07,05,03,38,8.80
2020,07,05,03,39,8.80
2020,07,05,03,40,8.80
2020,07,05,03,41,8.70
2020,07,05,03,42,8.70
2020,07,05,03,43,8.70
2020,07,05,03,44,8.70
2020,07,05,03,45,8.70
2020,07,05,03,46,8.70
2020,07,05,03,47,8.70
2020,07,05,03,48,8.70
2020,07,05,03,49,8.60
2020,07,05,03,50,8.60
2020,07,05,03,51,8.60
2020,07,05,03,52,8.60
2020,07,05,03,53,8.60
2020,07,05,03,54,8.50
2020,07,05,03,55,8.50
2020,07,05,03,56,8.50
2020,07,05,03,57,8.50
2020,07,05,03,58,8.40
2020,07,05,03,59,8.40
2020,07,05,04,00,8.40
2020,07,05,04,01,8.40
2020,07,05,04,02,8.40
2020,07,05,04,03,8.40
2020,07,05,04,04,8.40
2020,07,05,04,05,8.40
2020,07,05,04,06,8.40
2020,07,05,04,07,8.40
2020,07,05,04,08,8.50
2020,07,05,04,09,8.50
2020,07,05,04,10,8.50
2020,07,05,04,11,8.50
2020,07,05,04,12,8.50
2020,07,05,04,13,8.40
2020,07,05,04,14,8.40
2020,07,05,04,15,8.40
2020,07,05,04,16,8.40
2020,07,05,04,17,8.40
2020,07,05,04,18,8.50
2020,07,05,04,19,8.50
2020,07,05,04,20,8.40
2020,07,05,04,21,8.40
2020,07,05,04,22,8.40
2020,07,05,04,23,8.40
2020,07,05,04,24,8.40
2020,07,05,04,25,8.40
2020,07,05,04,26,8.40
2020,07,05,04,27,8.40
2020,07,05,04,28,8.40
2020,07,05,04,29,8.40
2020,07,05,04,30,8.40
2020,07,05,04,31,8.40
2020,07,05,04,32,8.40
2020,07,05,04,33,8.40
2020,07,05,04,34,8.40
2020,07,05,04,35,8.40
2020,07,05,04,36,8.40
2020,07,05,04,37,8.30
2020,07,05,04,38,8.30
2020,07,05,04,39,8.30
2020,07,05,04,40,8.30
2020,07,05,04,41,8.30
2020,07,05,04,42,8.30
2020,07,05,04,43,8.30
2020,07,05,04,44,8.20
2020,07,05,04,45,8.20
2020,07,05,04,46,8.20
2020,07,05,04,47,8.20
2020,07,05,04,48,8.20
2020,07,05,04,49,8.20
2020,07,05,04,50,8.10
2020,07,05,04,51,8.10
2020,07,05,04,52,8.10
2020,07,05,04,53,8.10
2020,07,05,04,54,8.00
2020,07,05,04,55,8.00
2020,07,05,04,56,8.00
2020,07,05,04,57,7.90
2020,07,05,04,58,7.90
2020,07,05,04,59,7.90
2020,07,05,05,00,7.90
2020,07,05,05,01,7.90
2020,07,05,05,02,7.90
2020,07,05,05,03,7.90
2020,07,05,05,04,7.90
2020,07,05,05,05,8.00
2020,07,05,05,06,8.00
2020,07,05,05,07,8.00
2020,07,05,05,08,8.00
2020,07,05,05,09,8.00
2020,07,05,05,10,8.00
2020,07,05,05,11,8.00
2020,07,05,05,12,8.00
2020,07,05,05,13,8.00
2020,07,05,05,14,8.00
2020,07,05,05,15,8.00
2020,07,05,05,16,8.00
2020,07,05,05,17,8.00
2020,07,05,05,18,8.00
2020,07,05,05,19,8.00
2020,07,05,05,20,8.00
2020,07,05,05,21,8.00
2020,07,05,05,22,8.00
2020,07,05,05,23,8.00
2020,07,05,05,24,8.00
2020,07,05,05,25,8.00
2020,07,05,05,26,8.00
2020,07,05,05,27,8.00
2020,07,05,05,28,8.00
2020,07,05,05,29,8.00
2020,07,05,05,30,8.00
2020,07,05,05,31,8.00
2020,07,05,05,32,8.00
2020,07,05,05,33,8.00
2020,07,05,05,34,8.00
2020,07,05,05,35,8.00
2020,07,05,05,36,8.00
2020,07,05,05,37,8.00
2020,07,05,05,38,8.00
2020,07,05,05,39,8.00
2020,07,05,05,40,8.00
2020,07,05,05,41,8.00
2020,07,05,05,42,8.00
2020,07,05,05,43,8.00
2020,07,05,05,44,8.10
2020,07,05,05,45,8.10
2020,07,05,05,46,8.10
2020,07,05,05,47,8.10
2020,07,05,05,48,8.10
2020,07,05,05,49,8.10
2020,07,05,05,50,8.10
2020,07,05,05,51,8.10
2020,07,05,05,52,8.10
2020,07,05,05,53,8.10
2020,07,05,05,54,8.10
2020,07,05,05,55,8.10
2020,07,05,05,56,8.10
2020,07,05,05,57,8.10
2020,07,05,05,58,8.10
2020,07,05,05,59,8.10
2020,07,05,06,00,8.10
2020,07,05,06,01,8.10
2020,07,05,06,02,8.10
2020,07,05,06,03,8.10
2020,07,05,06,04,8.10
2020,07,05,06,05,8.10
2020,07,05,06,06,8.20
2020,07,05,06,07,8.10
2020,07,05,06,08,8.10
2020,07,05,06,09,8.20
2020,07,05,06,10,8.10
2020,07,05,06,11,8.10
2020,07,05,06,12,8.10
2020,07,05,06,13,8.10
2020,07,05,06,14,8.20
2020,07,05,06,15,8.20
2020,07,05,06,16,8.20
2020,07,05,06,17,8.20
2020,07,05,06,18,8.20
2020,07,05,06,19,8.20
2020,07,05,06,20,8.20
2020,07,05,06,21,8.30
2020,07,05,06,22,8.30
2020,07,05,06,23,8.30
2020,07,05,06,24,8.30
2020,07,05,06,25,8.30
2020,07,05,06,26,8.40
2020,07,05,06,27,8.40
2020,07,05,06,28,8.40
2020,07,05,06,29,8.40
2020,07,05,06,30,8.50
2020,07,05,06,31,8.50
2020,07,05,06,32,8.50
2020,07,05,06,33,8.60
2020,07,05,06,34,8.60
2020,07,05,06,35,8.70
2020,07,05,06,36,8.70
2020,07,05,06,37,8.80
2020,07,05,06,38,8.80
2020,07,05,06,39,8.80
2020,07,05,06,40,8.90
2020,07,05,06,41,8.90
2020,07,05,06,42,9.00
2020,07,05,06,43,9.00
2020,07,05,06,44,9.00
2020,07,05,06,45,9.00
2020,07,05,06,46,9.10
2020,07,05,06,47,9.10
2020,07,05,06,48,9.10
2020,07,05,06,49,9.10
2020,07,05,06,50,9.10
2020,07,05,06,51,9.10
2020,07,05,06,52,9.20
2020,07,05,06,53,9.20
2020,07,05,06,54,9.20
2020,07,05,06,55,9.20
2020,07,05,06,56,9.30
2020,07,05,06,57,9.30
2020,07,05,06,58,9.30
2020,07,05,06,59,9.30
2020,07,05,07,00,9.40
2020,07,05,07,01,9.40
2020,07,05,07,02,9.50
2020,07,05,07,03,9.60
2020,07,05,07,04,9.60
2020,07,05,07,05,9.70
2020,07,05,07,06,9.70
2020,07,05,07,07,9.80
2020,07,05,07,08,9.80
2020,07,05,07,09,9.90
2020,07,05,07,10,9.90
2020,07,05,07,11,10.00
2020,07,05,07,12,10.10
2020,07,05,07,13,10.10
2020,07,05,07,14,10.20
2020,07,05,07,15,10.30
2020,07,05,07,16,10.30
2020,07,05,07,17,10.40
2020,07,05,07,18,10.40
2020,07,05,07,19,10.50
2020,07,05,07,20,10.50
2020,07,05,07,21,10.60
2020,07,05,07,22,10.70
2020,07,05,07,23,10.80
2020,07,05,07,24,10.80
2020,07,05,07,25,10.90
2020,07,05,07,26,11.00
2020,07,05,07,27,11.10
2020,07,05,07,28,11.10
2020,07,05,07,29,11.20
2020,07,05,07,30,11.30
2020,07,05,07,31,11.30
2020,07,05,07,32,11.40
2020,07,05,07,33,11.50
2020,07,05,07,34,11.60
2020,07,05,07,35,11.70
2020,07,05,07,36,11.80
2020,07,05,07,37,11.90
2020,07,05,07,38,12.00
2020,07,05,07,39,12.10
2020,07,05,07,40,12.20
2020,07,05,07,41,12.30
2020,07,05,07,42,12.50
2020,07,05,07,43,12.60
2020,07,05,07,44,12.70
2020,07,05,07,45,12.80
2020,07,05,07,46,12.90
2020,07,05,07,47,13.00
2020,07,05,07,48,13.20
2020,07,05,07,49,13.30
2020,07,05,07,50,13.40
2020,07,05,07,51,13.40
2020,07,05,07,52,13.50
2020,07,05,07,53,13.50
2020,07,05,07,54,13.60
2020,07,05,07,55,13.60
2020,07,05,07,56,13.60
2020,07,05,07,57,13.50
2020,07,05,07,58,13.50
2020,07,05,07,59,13.50
2020,07,05,08,00,13.60
2020,07,05,08,01,13.60
2020,07,05,08,02,13.60
2020,07,05,08,03,13.60
2020,07,05,08,04,13.70
2020,07,05,08,05,13.70
2020,07,05,08,06,13.70
2020,07,05,08,07,13.70
2020,07,05,08,08,13.70
2020,07,05,08,09,13.70
2020,07,05,08,10,13.70
2020,07,05,08,11,13.80
2020,07,05,08,12,13.80
2020,07,05,08,13,13.80
2020,07,05,08,14,13.90
2020,07,05,08,15,13.90
2020,07,05,08,16,13.90
2020,07,05,08,17,13.90
2020,07,05,08,18,13.90
2020,07,05,08,19,13.90
2020,07,05,08,20,13.90
2020,07,05,08,21,13.90
2020,07,05,08,22,13.90
2020,07,05,08,23,13.90
2020,07,05,08,24,13.90
2020,07,05,08,25,13.90
2020,07,05,08,26,13.90
2020,07,05,08,27,13.90
2020,07,05,08,28,14.00
2020,07,05,08,29,14.00
2020,07,05,08,30,14.00
2020,07,05,08,31,14.10
2020,07,05,08,32,14.10
2020,07,05,08,33,14.10
2020,07,05,08,34,14.20
2020,07,05,08,35,14.20
2020,07,05,08,36,14.20
2020,07,05,08,37,14.20
2020,07,05,08,38,14.20
2020,07,05,08,39,14.20
2020,07,05,08,40,14.20
2020,07,05,08,41,14.20
2020,07,05,08,42,14.20
2020,07,05,08,43,14.20
2020,07,05,08,44,14.20
2020,07,05,08,45,14.30
2020,07,05,08,46,14.30
2020,07,05,08,47,14.40
2020,07,05,08,48,14.50
2020,07,05,08,49,14.50
2020,07,05,08,50,14.60
2020,07,05,08,51,14.70
2020,07,05,08,52,14.80
2020,07,05,08,53,14.80
2020,07,05,08,54,14.90
2020,07,05,08,55,15.00
2020,07,05,08,56,15.00
2020,07,05,08,57,15.00
2020,07,05,08,58,15.10
2020,07,05,08,59,15.20
2020,07,05,09,00,15.30
2020,07,05,09,01,15.30
2020,07,05,09,02,15.40
2020,07,05,09,03,15.50
2020,07,05,09,04,15.50
2020,07,05,09,05,15.60
2020,07,05,09,06,15.60
2020,07,05,09,07,15.60
2020,07,05,09,08,15.70
2020,07,05,09,09,15.70
2020,07,05,09,10,15.70
2020,07,05,09,11,15.80
2020,07,05,09,12,15.80
2020,07,05,09,13,15.80
2020,07,05,09,14,15.90
2020,07,05,09,15,15.90
2020,07,05,09,16,16.00
2020,07,05,09,17,16.00
2020,07,05,09,18,16.10
2020,07,05,09,19,16.10
2020,07,05,09,20,16.20
2020,07,05,09,21,16.20
2020,07,05,09,22,16.20
2020,07,05,09,23,16.30
2020,07,05,09,24,16.30
2020,07,05,09,25,16.40
2020,07,05,09,26,16.50
2020,07,05,09,27,16.60
2020,07,05,09,28,16.70
2020,07,05,09,29,16.80
2020,07,05,09,30,16.90
2020,07,05,09,31,17.00
2020,07,05,09,32,17.00
2020,07,05,09,33,17.10
2020,07,05,09,34,17.10
2020,07,05,09,35,17.20
2020,07,05,09,36,17.30
2020,07,05,09,37,17.30
2020,07,05,09,38,17.40
2020,07,05,09,39,17.40
2020,07,05,09,40,17.50
2020,07,05,09,41,17.50
2020,07,05,09,42,17.60
2020,07,05,09,43,17.60
2020,07,05,09,44,17.60
2020,07,05,09,45,17.60
2020,07,05,09,46,17.70
2020,07,05,09,47,17.70
2020,07,05,09,48,17.70
2020,07,05,09,49,17.70
2020,07,05,09,50,17.70
2020,07,05,09,51,17.80
2020,07,05,09,52,17.80
2020,07,05,09,53,17.80
2020,07,05,09,54,17.80
2020,07,05,09,55,17.80
2020,07,05,09,56,17.80
2020,07,05,09,57,17.80
2020,07,05,09,58,17.80
2020,07,05,09,59,17.90
2020,07,05,10,00,17.90
2020,07,05,10,01,18.00
2020,07,05,10,02,18.00
2020,07,05,10,03,18.10
2020,07,05,10,04,18.10
2020,07,05,10,05,18.10
2020,07,05,10,06,18.10
2020,07,05,10,07,18.10
2020,07,05,10,08,18.10
2020,07,05,10,09,18.20
2020,07,05,10,10,18.20
2020,07,05,10,11,18.20
2020,07,05,10,12,18.30
2020,07,05,10,13,18.30
2020,07,05,10,14,18.40
2020,07,05,10,15,18.50
2020,07,05,10,16,18.50
2020,07,05,10,17,18.60
2020,07,05,10,18,18.70
2020,07,05,10,19,18.70
2020,07,05,10,20,18.70
2020,07,05,10,21,18.70
2020,07,05,10,22,18.70
2020,07,05,10,23,18.80
2020,07,05,10,24,18.80
2020,07,05,10,25,18.80
2020,07,05,10,26,18.80
2020,07,05,10,27,18.80
2020,07,05,10,28,18.80
2020,07,05,10,29,18.70
2020,07,05,10,30,18.60
2020,07,05,10,31,18.50
2020,07,05,10,32,18.50
2020,07,05,10,33,18.40
2020,07,05,10,34,18.40
2020,07,05,10,35,18.40
2020,07,05,10,36,18.40
2020,07,05,10,37,18.40
2020,07,05,10,38,18.40
2020,07,05,10,39,18.40
2020,07,05,10,40,18.40
2020,07,05,10,41,18.40
2020,07,05,10,42,18.40
2020,07,05,10,43,18.50
2020,07,05,10,44,18.50
2020,07,05,10,45,18.50
2020,07,05,10,46,18.50
2020,07,05,10,47,18.60
2020,07,05,10,48,18.60
2020,07,05,10,49,18.70
2020,07,05,10,50,18.80
2020,07,05,10,51,18.80
2020,07,05,10,52,18.90
2020,07,05,10,53,18.90
2020,07,05,10,54,18.90
2020,07,05,10,55,18.90
2020,07,05,10,56,18.90
2020,07,05,10,57,18.90
2020,07,05,10,58,18.90
2020,07,05,10,59,18.80
2020,07,05,11,00,18.80
2020,07,05,11,01,18.80
2020,07,05,11,02,18.80
2020,07,05,11,03,18.80
2020,07,05,11,04,18.80
2020,07,05,11,05,18.90
2020,07,05,11,06,18.90
2020,07,05,11,07,18.90
2020,07,05,11,08,19.00
2020,07,05,11,09,19.10
2020,07,05,11,10,19.10
2020,07,05,11,11,19.10
2020,07,05,11,12,19.10
2020,07,05,11,13,19.00
2020,07,05,11,14,18.90
2020,07,05,11,15,18.90
2020,07,05,11,16,18.90
2020,07,05,11,17,18.90
2020,07,05,11,18,18.90
2020,07,05,11,19,18.90
2020,07,05,11,20,19.00
2020,07,05,11,21,19.00
2020,07,05,11,22,19.00
2020,07,05,11,23,19.10
2020,07,05,11,24,19.10
2020,07,05,11,25,19.10
2020,07,05,11,26,19.10
2020,07,05,11,27,19.10
2020,07,05,11,28,19.10
2020,07,05,11,29,19.10
2020,07,05,11,30,19.10
2020,07,05,11,31,19.10
2020,07,05,11,32,19.10
2020,07,05,11,33,19.10
2020,07,05,11,34,19.20
2020,07,05,11,35,19.20
2020,07,05,11,36,19.20
2020,07,05,11,37,19.10
2020,07,05,11,38,19.00
2020,07,05,11,39,18.90
2020,07,05,11,40,18.90
2020,07,05,11,41,18.90
2020,07,05,11,42,18.90
2020,07,05,11,43,18.80
2020,07,05,11,44,18.80
2020,07,05,11,45,18.80
2020,07,05,11,46,18.70
2020,07,05,11,47,18.70
2020,07,05,11,48,18.70
2020,07,05,11,49,18.60
2020,07,05,11,50,18.60
2020,07,05,11,51,18.60
2020,07,05,11,52,18.60
2020,07,05,11,53,18.60
2020,07,05,11,54,18.60
2020,07,05,11,55,18.60
2020,07,05,11,56,18.70
2020,07,05,11,57,18.80
2020,07,05,11,58,18.80
2020,07,05,11,59,18.80
2020,07,05,12,00,18.80
2020,07,05,12,01,18.80
2020,07,05,12,02,18.80
2020,07,05,12,03,18.80
2020,07,05,12,04,18.80
2020,07,05,12,05,18.90
2020,07,05,12,06,19.00
2020,07,05,12,07,19.10
2020,07,05,12,08,19.20
2020,07,05,12,09,19.20
2020,07,05,12,10,19.20
2020,07,05,12,11,19.20
2020,07,05,12,12,19.30
2020,07,05,12,13,19.30
2020,07,05,12,14,19.30
2020,07,05,12,15,19.40
2020,07,05,12,16,19.40
2020,07,05,12,17,19.50
2020,07,05,12,18,19.50
2020,07,05,12,19,19.50
2020,07,05,12,20,19.50
2020,07,05,12,21,19.40
2020,07,05,12,22,19.40
2020,07,05,12,23,19.40
2020,07,05,12,24,19.40
2020,07,05,12,25,19.40
2020,07,05,12,26,19.50
2020,07,05,12,27,19.50
2020,07,05,12,28,19.60
2020,07,05,12,29,19.60
2020,07,05,12,30,19.70
2020,07,05,12,31,19.70
2020,07,05,12,32,19.70
2020,07,05,12,33,19.60
2020,07,05,12,34,19.60
2020,07,05,12,35,19.70
2020,07,05,12,36,19.60
2020,07,05,12,37,19.60
2020,07,05,12,38,19.60
2020,07,05,12,39,19.60
2020,07,05,12,40,19.60
2020,07,05,12,41,19.60
2020,07,05,12,42,19.60
2020,07,05,12,43,19.60
2020,07,05,12,44,19.70
2020,07,05,12,45,19.70
2020,07,05,12,46,19.70
2020,07,05,12,47,19.80
2020,07,05,12,48,19.70
2020,07,05,12,49,19.70
2020,07,05,12,50,19.60
2020,07,05,12,51,19.50
2020,07,05,12,52,19.50
2020,07,05,12,53,19.50
2020,07,05,12,54,19.50
2020,07,05,12,55,19.40
2020,07,05,12,56,19.30
2020,07,05,12,57,19.30
2020,07,05,12,58,19.20
2020,07,05,12,59,19.20
2020,07,05,13,00,19.10
2020,07,05,13,01,19.00
2020,07,05,13,02,19.00
2020,07,05,13,03,18.90
2020,07,05,13,04,18.90
2020,07,05,13,05,18.80
2020,07,05,13,06,18.80
2020,07,05,13,07,18.80
2020,07,05,13,08,18.80
2020,07,05,13,09,18.80
2020,07,05,13,10,18.80
2020,07,05,13,11,18.90
2020,07,05,13,12,19.00
2020,07,05,13,13,19.10
2020,07,05,13,14,19.20
2020,07,05,13,15,19.30
2020,07,05,13,16,19.30
2020,07,05,13,17,19.40
2020,07,05,13,18,19.40
2020,07,05,13,19,19.30
2020,07,05,13,20,19.30
2020,07,05,13,21,19.30
2020,07,05,13,22,19.30
2020,07,05,13,23,19.30
2020,07,05,13,24,19.30
2020,07,05,13,25,19.20
2020,07,05,13,26,19.30
2020,07,05,13,27,19.30
2020,07,05,13,28,19.40
2020,07,05,13,29,19.50
2020,07,05,13,30,19.60
2020,07,05,13,31,19.70
2020,07,05,13,32,19.70
2020,07,05,13,33,19.80
2020,07,05,13,34,19.90
2020,07,05,13,35,19.90
2020,07,05,13,36,19.90
2020,07,05,13,37,20.00
2020,07,05,13,38,20.00
2020,07,05,13,39,20.10
2020,07,05,13,40,20.10
2020,07,05,13,41,20.20
2020,07,05,13,42,20.20
2020,07,05,13,43,20.30
2020,07,05,13,44,20.30
2020,07,05,13,45,20.40
2020,07,05,13,46,20.50
2020,07,05,13,47,20.60
2020,07,05,13,48,20.70
2020,07,05,13,49,20.70
2020,07,05,13,50,20.80
2020,07,05,13,51,20.80
2020,07,05,13,52,20.90
2020,07,05,13,53,20.90
2020,07,05,13,54,21.00
2020,07,05,13,55,21.10
2020,07,05,13,56,21.20
2020,07,05,13,57,21.20
2020,07,05,13,58,21.20
2020,07,05,13,59,21.30
2020,07,05,14,00,21.40
2020,07,05,14,01,21.40
2020,07,05,14,02,21.40
2020,07,05,14,03,21.40
2020,07,05,14,04,21.40
2020,07,05,14,05,21.30
2020,07,05,14,06,21.30
2020,07,05,14,07,21.30
2020,07,05,14,08,21.30
2020,07,05,14,09,21.30
2020,07,05,14,10,21.30
2020,07,05,14,11,21.30
2020,07,05,14,12,21.40
2020,07,05,14,13,21.40
2020,07,05,14,14,21.50
2020,07,05,14,15,21.60
2020,07,05,14,16,21.70
2020,07,05,14,17,21.70
2020,07,05,14,18,21.80
2020,07,05,14,19,21.80
2020,07,05,14,20,21.80
2020,07,05,14,21,21.80
2020,07,05,14,22,21.80
2020,07,05,14,23,21.80
2020,07,05,14,24,21.80
2020,07,05,14,25,21.80
2020,07,05,14,26,21.80
2020,07,05,14,27,21.70
2020,07,05,14,28,21.70
2020,07,05,14,29,21.70
2020,07,05,14,30,21.70
2020,07,05,14,31,21.70
2020,07,05,14,32,21.70
2020,07,05,14,33,21.80
2020,07,05,14,34,21.80
2020,07,05,14,35,21.80
2020,07,05,14,36,21.90
2020,07,05,14,37,21.90
2020,07,05,14,38,21.90
2020,07,05,14,39,21.90
2020,07,05,14,40,21.90
2020,07,05,14,41,22.00
2020,07,05,14,42,22.00
2020,07,05,14,43,22.10
2020,07,05,14,44,22.10
2020,07,05,14,45,22.10
2020,07,05,14,46,22.10
2020,07,05,14,47,22.20
2020,07,05,14,48,22.20
2020,07,05,14,49,22.10
2020,07,05,14,50,22.10
2020,07,05,14,51,22.10
2020,07,05,14,52,22.10
2020,07,05,14,53,22.10
2020,07,05,14,54,22.10
2020,07,05,14,55,22.10
2020,07,05,14,56,22.20
2020,07,05,14,57,22.20
2020,07,05,14,58,22.20
2020,07,05,14,59,22.20
2020,07,05,15,00,22.20
2020,07,05,15,01,22.10
2020,07,05,15,02,22.10
2020,07,05,15,03,22.10
2020,07,05,15,04,22.10
2020,07,05,15,05,22.20
2020,07,05,15,06,22.20
2020,07,05,15,07,22.20
2020,07,05,15,08,22.10
2020,07,05,15,09,22.10
2020,07,05,15,10,22.00
2020,07,05,15,11,21.80
2020,07,05,15,12,21.60
2020,07,05,15,13,21.50
2020,07,05,15,14,21.40
2020,07,05,15,15,21.40
2020,07,05,15,16,21.30
2020,07,05,15,17,21.30
2020,07,05,15,18,21.30
2020,07,05,15,19,21.10
2020,07,05,15,20,21.10
2020,07,05,15,21,21.00
2020,07,05,15,22,21.00
2020,07,05,15,23,21.00
2020,07,05,15,24,21.10
2020,07,05,15,25,21.00
2020,07,05,15,26,21.00
2020,07,05,15,27,20.80
2020,07,05,15,28,20.70
2020,07,05,15,29,20.60
2020,07,05,15,30,20.50
2020,07,05,15,31,20.40
2020,07,05,15,32,20.30
2020,07,05,15,33,20.30
2020,07,05,15,34,20.20
2020,07,05,15,35,20.20
2020,07,05,15,36,20.20
2020,07,05,15,37,20.20
2020,07,05,15,38,20.30
2020,07,05,15,39,20.30
2020,07,05,15,40,20.40
2020,07,05,15,41,20.40
2020,07,05,15,42,20.40
2020,07,05,15,43,20.40
2020,07,05,15,44,20.30
2020,07,05,15,45,20.30
2020,07,05,15,46,20.30
2020,07,05,15,47,20.30
2020,07,05,15,48,20.30
2020,07,05,15,49,20.20
2020,07,05,15,50,20.10
2020,07,05,15,51,20.00
2020,07,05,15,52,20.00
2020,07,05,15,53,19.90
2020,07,05,15,54,19.90
2020,07,05,15,55,19.90
2020,07,05,15,56,19.80
2020,07,05,15,57,19.80
2020,07,05,15,58,19.80
2020,07,05,15,59,19.90
2020,07,05,16,00,19.90
2020,07,05,16,01,20.00
2020,07,05,16,02,20.00
2020,07,05,16,03,20.00
2020,07,05,16,04,19.90
2020,07,05,16,05,19.90
2020,07,05,16,06,19.90
2020,07,05,16,07,19.90
2020,07,05,16,08,19.90
2020,07,05,16,09,19.80
2020,07,05,16,10,19.80
2020,07,05,16,11,19.80
2020,07,05,16,12,19.80
2020,07,05,16,13,19.80
2020,07,05,16,14,19.70
2020,07,05,16,15,19.70
2020,07,05,16,16,19.70
2020,07,05,16,17,19.60
2020,07,05,16,18,19.60
2020,07,05,16,19,19.50
2020,07,05,16,20,19.40
2020,07,05,16,21,19.40
2020,07,05,16,22,19.40
2020,07,05,16,23,19.30
2020,07,05,16,24,19.30
2020,07,05,16,25,19.30
2020,07,05,16,26,19.20
2020,07,05,16,27,19.20
2020,07,05,16,28,19.30
2020,07,05,16,29,19.30
2020,07,05,16,30,19.40
2020,07,05,16,31,19.40
2020,07,05,16,32,19.40
2020,07,05,16,33,19.30
2020,07,05,16,34,19.30
2020,07,05,16,35,19.30
2020,07,05,16,36,19.30
2020,07,05,16,37,19.30
2020,07,05,16,38,19.30
2020,07,05,16,39,19.40
2020,07,05,16,40,19.40
2020,07,05,16,41,19.40
2020,07,05,16,42,19.50
2020,07,05,16,43,19.50
2020,07,05,16,44,19.60
2020,07,05,16,45,19.70
2020,07,05,16,46,19.70
2020,07,05,16,47,19.70
2020,07,05,16,48,19.70
2020,07,05,16,49,19.60
2020,07,05,16,50,19.60
2020,07,05,16,51,19.50
2020,07,05,16,52,19.50
2020,07,05,16,53,19.40
2020,07,05,16,54,19.40
2020,07,05,16,55,19.40
2020,07,05,16,56,19.30
2020,07,05,16,57,19.30
2020,07,05,16,58,19.30
2020,07,05,16,59,19.20
2020,07,05,17,00,19.20
2020,07,05,17,01,19.10
2020,07,05,17,02,19.10
2020,07,05,17,03,19.10
2020,07,05,17,04,19.10
2020,07,05,17,05,19.00
2020,07,05,17,06,18.90
2020,07,05,17,07,18.90
2020,07,05,17,08,18.90
2020,07,05,17,09,18.90
2020,07,05,17,10,18.80
2020,07,05,17,11,18.80
2020,07,05,17,12,18.70
2020,07,05,17,13,18.70
2020,07,05,17,14,18.70
2020,07,05,17,15,18.70
2020,07,05,17,16,18.70
2020,07,05,17,17,18.70
2020,07,05,17,18,18.70
2020,07,05,17,19,18.80
2020,07,05,17,20,18.80
2020,07,05,17,21,18.80
2020,07,05,17,22,18.80
2020,07,05,17,23,18.80
2020,07,05,17,24,18.80
2020,07,05,17,25,18.80
2020,07,05,17,26,18.80
2020,07,05,17,27,18.90
2020,07,05,17,28,18.90
2020,07,05,17,29,18.80
2020,07,05,17,30,18.70
2020,07,05,17,31,18.70
2020,07,05,17,32,18.60
2020,07,05,17,33,18.60
2020,07,05,17,34,18.60
2020,07,05,17,35,18.60